Regional Weather Roundup
Issued by NWS Spokane, WA

Home | Current Version | Previous Version | Text Only | Print | Product List | Glossary On
Versions: 1 2 3 4 5 6 7 8 9 10 11 12 13 14 15 16 17 18 19 20 21 22 23 24 25 26 27 28 29 30 31 32 33 34 35 36 37 38 39 40 41 42 43 44 45 46 47 48 49 50
000
NZUS01 KOTX 231557
RWROTX
EASTERN WASHINGTON/NORTHERN IDAHO ROUNDUP
NATIONAL WEATHER SERVICE, SPOKANE WA
900 AM PDT THU OCT 23 2014

Note: "fair" indicated few or no clouds below 12,000 feet with no
significant weather and/or obstructions to visibility.

...NORTHEAST WASHINGTON AND NORTHERN IDAHO PANHANDLE...

CITY           SKY/WX    TMP DP  RH WIND       PRES   REMARKS
SPOKANE INTL   LGT RAIN  50  49  96 S9        29.80S
SPOKANE DOWNTO LGT RAIN  53  50  89 VRB3      29.80S FOG
DEER PARK      CLOUDY    50  49  96 SE7       29.80S

...SOUTHEAST WASHINGTON AND SOUTHERN IDAHO PANHANDLE...

CITY           SKY/WX    TMP DP  RH WIND       PRES   REMARKS
WALLA WALLA    CLOUDY    57  53  86 SE5       29.79R
PULLMAN/MOSCOW LGT RAIN  51  47  86 E9        29.84S
LOWELL           N/A     50  48  93 N3        29.91R

...COLUMBIA BASIN...

CITY           SKY/WX    TMP DP  RH WIND       PRES   REMARKS
EPHRATA        PTSUNNY   49  47  93 NE3       29.77R
MOSES LAKE     CLOUDY    53  50  89 S8        29.77S
TRI CITIES     PTSUNNY   57  55  93 CALM      29.79R
HERMISTON      LGT RAIN  55  53  93 NW6       29.79R
PENDLETON      CLOUDY    53  51  93 SE8       29.79R

...EAST SLOPES CASCADES...

CITY           SKY/WX    TMP DP  RH WIND       PRES   REMARKS
THE DALLES     LGT RAIN  53  51  93 NW5       29.81R
YAKIMA         LGT RAIN  49  46  90 SW5       29.77R
ELLENSBURG     CLOUDY    48  44  86 CALM      29.77R
OMAK           CLOUDY    52  42  69 S6        29.75R

...SOUTHERN BRITISH COLUMBIA...

CITY           SKY/WX    TMP DP  RH WIND       PRES   REMARKS

...WESTERN MONTANA...

CITY           SKY/WX    TMP DP  RH WIND       PRES   REMARKS
MISSOULA       CLOUDY    52  43  71 E9        29.89F

...NEIGHBORING CITIES...

CITY           SKY/WX    TMP DP  RH WIND       PRES   REMARKS
SEATTLE        LGT RAIN  51  47  86 SE12      29.77R



USA.gov is the U.S. government's official web portal to all federal, state and local government web resources and services.